TimeEDT,TemperatureF,Dew PointF,Humidity,Sea Level PressureIn,VisibilityMPH,Wind Direction,Wind SpeedMPH,Gust SpeedMPH,PrecipitationIn,Events,Conditions,WindDirDegrees,DateUTC
12:15 AM,30.2,28.4,93,30.04,5.0,West,10.4,-,N/A,,Overcast,280,2013-03-28 04:15:00
12:35 AM,30.2,28.4,93,30.04,1.5,WNW,11.5,17.3,N/A,,Overcast,290,2013-03-28 04:35:00
12:55 AM,30.2,28.4,93,30.04,2.0,WNW,16.1,-,N/A,,Overcast,300,2013-03-28 04:55:00
1:15 AM,30.2,28.4,93,30.03,2.0,NW,10.4,-,N/A,,Overcast,310,2013-03-28 05:15:00
1:35 AM,30.2,26.6,86,30.03,2.0,NW,9.2,-,N/A,,Overcast,310,2013-03-28 05:35:00
1:55 AM,30.2,26.6,86,30.04,2.5,NW,9.2,-,N/A,,Overcast,320,2013-03-28 05:55:00
2:15 AM,28.4,26.6,93,30.04,2.0,NNW,9.2,-,N/A,,Overcast,330,2013-03-28 06:15:00
2:35 AM,28.4,26.6,93,30.04,3.0,NW,10.4,-,N/A,,Overcast,320,2013-03-28 06:35:00
2:55 AM,28.4,26.6,93,30.04,4.0,NNW,8.1,-,N/A,,Overcast,330,2013-03-28 06:55:00
3:15 AM,28.4,26.6,93,30.04,6.0,NNW,8.1,-,N/A,,Overcast,330,2013-03-28 07:15:00
3:35 AM,28.4,26.6,93,30.04,10.0,NNW,8.1,-,N/A,,Overcast,330,2013-03-28 07:35:00
3:55 AM,28.4,26.6,93,30.04,10.0,NW,12.7,-,N/A,,Overcast,310,2013-03-28 07:55:00
4:15 AM,28.4,26.6,93,30.05,5.0,NW,9.2,-,N/A,,Overcast,320,2013-03-28 08:15:00
4:35 AM,28.4,26.6,93,30.05,5.0,NW,8.1,-,N/A,,Overcast,320,2013-03-28 08:35:00
4:55 AM,28.4,26.6,93,30.05,3.0,NW,8.1,-,N/A,,Overcast,320,2013-03-28 08:55:00
5:15 AM,28.4,26.6,93,30.05,4.0,NNW,8.1,-,N/A,,Overcast,330,2013-03-28 09:15:00
5:35 AM,28.4,26.6,93,30.06,4.0,NNW,8.1,-,N/A,,Overcast,330,2013-03-28 09:35:00
5:55 AM,28.4,26.6,93,30.06,5.0,NW,8.1,-,N/A,,Overcast,320,2013-03-28 09:55:00
6:15 AM,28.4,26.6,93,30.06,5.0,NW,8.1,-,N/A,,Overcast,320,2013-03-28 10:15:00
6:35 AM,28.4,26.6,93,30.07,10.0,NW,9.2,-,N/A,,Overcast,310,2013-03-28 10:35:00
6:55 AM,28.4,26.6,93,30.07,9.0,NW,9.2,-,N/A,,Overcast,320,2013-03-28 10:55:00
7:15 AM,28.4,26.6,93,30.08,9.0,NNW,9.2,-,N/A,,Overcast,330,2013-03-28 11:15:00
7:35 AM,28.4,26.6,93,30.09,7.0,NW,8.1,-,N/A,,Overcast,320,2013-03-28 11:35:00
7:55 AM,28.4,26.6,93,30.09,4.0,NW,8.1,-,N/A,,Overcast,310,2013-03-28 11:55:00
8:15 AM,28.4,26.6,93,30.10,2.5,NW,8.1,-,N/A,,Overcast,320,2013-03-28 12:15:00
8:35 AM,28.4,28.4,100,30.11,0.2,WNW,8.1,-,N/A,,Overcast,300,2013-03-28 12:35:00
8:55 AM,28.4,26.6,93,30.11,0.2,NW,9.2,-,N/A,,Overcast,310,2013-03-28 12:55:00
9:15 AM,28.4,28.4,100,30.11,4.0,NW,8.1,-,N/A,,Overcast,320,2013-03-28 13:15:00
9:35 AM,30.2,28.4,93,30.11,7.0,NW,8.1,-,N/A,,Overcast,310,2013-03-28 13:35:00
9:55 AM,30.2,28.4,93,30.12,3.0,WNW,8.1,-,N/A,,Overcast,300,2013-03-28 13:55:00
10:15 AM,30.2,28.4,93,30.12,4.0,NW,8.1,-,N/A,,Overcast,310,2013-03-28 14:15:00
10:35 AM,30.2,28.4,93,30.13,4.0,WNW,6.9,-,N/A,,Overcast,290,2013-03-28 14:35:00
10:55 AM,30.2,28.4,93,30.13,4.0,NW,8.1,-,N/A,,Overcast,310,2013-03-28 14:55:00
11:15 AM,30.2,28.4,93,30.14,10.0,NW,6.9,-,N/A,,Overcast,310,2013-03-28 15:15:00
11:35 AM,30.2,28.4,93,30.15,10.0,WNW,6.9,-,N/A,,Overcast,300,2013-03-28 15:35:00
11:55 AM,32.0,28.4,87,30.15,9.0,WNW,6.9,-,N/A,,Overcast,300,2013-03-28 15:55:00
12:15 PM,32.0,28.4,87,30.15,10.0,WNW,6.9,-,N/A,,Overcast,290,2013-03-28 16:15:00
12:35 PM,32.0,28.4,87,30.15,10.0,West,8.1,-,N/A,,Overcast,270,2013-03-28 16:35:00
12:55 PM,32.0,28.4,87,30.15,10.0,West,6.9,-,N/A,,Overcast,280,2013-03-28 16:55:00
1:15 PM,33.8,28.4,81,30.15,10.0,West,8.1,-,N/A,,Overcast,270,2013-03-28 17:15:00
1:35 PM,33.8,30.2,87,30.15,10.0,NW,6.9,-,N/A,,Overcast,310,2013-03-28 17:35:00
1:55 PM,32.0,28.4,87,30.15,10.0,West,6.9,-,N/A,,Overcast,270,2013-03-28 17:55:00
2:15 PM,33.8,28.4,81,30.15,10.0,WNW,6.9,-,N/A,,Overcast,290,2013-03-28 18:15:00
2:35 PM,33.8,28.4,81,30.15,10.0,WNW,6.9,-,N/A,,Overcast,290,2013-03-28 18:35:00
2:55 PM,33.8,28.4,81,30.15,10.0,WNW,9.2,-,N/A,,Overcast,300,2013-03-28 18:55:00
3:15 PM,33.8,28.4,81,30.15,10.0,WNW,6.9,-,N/A,,Overcast,290,2013-03-28 19:15:00
3:35 PM,33.8,28.4,81,30.15,10.0,West,9.2,-,N/A,,Overcast,270,2013-03-28 19:35:00
3:55 PM,33.8,28.4,81,30.15,10.0,WNW,10.4,-,N/A,,Overcast,290,2013-03-28 19:55:00
4:15 PM,33.8,28.4,81,30.15,10.0,West,9.2,-,N/A,,Overcast,280,2013-03-28 20:15:00
4:35 PM,33.8,28.4,81,30.16,10.0,WNW,9.2,-,N/A,,Overcast,290,2013-03-28 20:35:00
4:55 PM,33.8,28.4,81,30.16,10.0,West,9.2,-,N/A,,Overcast,280,2013-03-28 20:55:00
5:15 PM,33.8,28.4,81,30.16,10.0,West,11.5,-,N/A,,Overcast,270,2013-03-28 21:15:00
5:35 PM,33.8,28.4,81,30.17,6.0,West,10.4,-,N/A,,Overcast,280,2013-03-28 21:35:00
5:55 PM,32.0,28.4,87,30.17,8.0,West,10.4,-,N/A,,Overcast,280,2013-03-28 21:55:00
6:15 PM,32.0,28.4,87,30.17,9.0,West,10.4,-,N/A,,Overcast,270,2013-03-28 22:15:00
6:35 PM,32.0,28.4,87,30.17,10.0,West,5.8,-,N/A,,Overcast,280,2013-03-28 22:35:00
6:55 PM,32.0,28.4,87,30.18,10.0,West,6.9,-,N/A,,Overcast,270,2013-03-28 22:55:00
7:15 PM,32.0,28.4,87,30.19,9.0,West,8.1,-,N/A,,Overcast,270,2013-03-28 23:15:00
7:35 PM,32.0,28.4,87,30.19,10.0,West,6.9,-,N/A,,Mostly Cloudy,280,2013-03-28 23:35:00
7:55 PM,32.0,28.4,87,30.19,10.0,West,8.1,-,N/A,,Overcast,260,2013-03-28 23:55:00
8:15 PM,32.0,28.4,87,30.20,10.0,WSW,6.9,-,N/A,,Overcast,250,2013-03-29 00:15:00
8:35 PM,32.0,28.4,87,30.20,10.0,West,9.2,-,N/A,,Overcast,270,2013-03-29 00:35:00
8:55 PM,32.0,28.4,87,30.20,10.0,West,8.1,-,N/A,,Overcast,260,2013-03-29 00:55:00
9:15 PM,32.0,28.4,87,30.20,10.0,West,10.4,-,N/A,,Overcast,260,2013-03-29 01:15:00
9:35 PM,32.0,28.4,87,30.20,10.0,West,11.5,-,N/A,,Overcast,260,2013-03-29 01:35:00
9:55 PM,32.0,28.4,87,30.21,10.0,West,6.9,-,N/A,,Overcast,280,2013-03-29 01:55:00
10:15 PM,32.0,28.4,87,30.21,10.0,West,6.9,-,N/A,,Overcast,280,2013-03-29 02:15:00
10:35 PM,32.0,28.4,87,30.21,10.0,West,5.8,-,N/A,,Overcast,270,2013-03-29 02:35:00
10:55 PM,32.0,28.4,87,30.21,10.0,West,5.8,-,N/A,,Overcast,260,2013-03-29 02:55:00
11:15 PM,32.0,28.4,87,30.21,10.0,Calm,Calm,-,N/A,,Overcast,0,2013-03-29 03:15:00
11:35 PM,32.0,26.6,80,30.21,10.0,West,5.8,-,N/A,,Overcast,270,2013-03-29 03:35:00
11:55 PM,32.0,28.4,87,30.21,10.0,West,4.6,-,N/A,,Overcast,270,2013-03-29 03:55:00